Weather in Krivoklat

Czech Republic     50°02′11″N   13°52′17″E
temp.,
°C
wind,
m/s
gust,
m/s
humid.,
%
clouds,
%
prec.,
mm/h
press.,
hPa
HPBL,
m
26 january, tue
tue2601:00−5w239186 0.0 101149
04:00−5wsw379339 0.0 1013149
07:00−5sw499445 0.0 1013334
10:00−2wsw71189100 0.3 1013834
13:000wsw61093100 0.4 1013819
16:00+1wnw41087100 0.6 1013623
19:00−2nw4119099 0.8 1015545
22:00−5w359031 0.0 1018113
27 january, wed
wed2701:00−4w389048 0.0 1019209
04:00−5wsw389310 0.0 1019212
07:00−5wsw3109315 0.0 1018261
10:00−2wsw599093 0.0 1018496
13:000wsw588494 0.0 1016688
16:00−1sw488864 0.0 1014395
19:00−2sw5119279 0.0 1015432
22:00−2sw5119286 0.1 1014486
28 january, thu
thu2801:000wsw5129488 0.2 1013500
04:00+2wsw51296100 0.1 1011538
07:00+1w51296100 0.3 1011525
10:00+2wsw41097100 0.2 1010535
13:00+3wsw3795100 0.2 1007458
16:00+1sse1199100 2.1 100322
19:00+1ne0199100 4.4 100226
22:000ne3599100 1.2 1002186
29 january, fri
fri2901:00−1ne2498100 3.4 1002218
04:00−2ene2398100 1.2 1002242
07:00−3e3597100 2.6 1000251
10:00−2e3697100 3.2 999314
13:00−2ene1197100 7.4 1000177
16:00−1ne1499100 4.8 1001222
19:00−2ene1298100 7.1 1003150
22:00−3ne2398100 2.7 1004181
30 january, sat
sat3001:00−4nne2497100 3.8 1004220
04:00−4nne139899 0.7 1005179
07:00−5wnw1197100 1.4 100721
10:00−4wnw119354 0.0 1008136
13:00−2w228431 0.0 1008381
16:00−3wsw229118 0.0 100851
19:00−7wsw22909 0.0 101022
22:00−8wsw22830 0.0 101121